Cozumel, Mexico

11:03 PM EST on February 23, 2018 (GMT -0500)
Cozumel

Weather History for MMCZ - March, 2014

Change the Weather History Date:

Monday, March 24, 2014

  Actual Average Record
Temperature  
Mean Temperature 74 °F -  
Max Temperature 84 °F 85 °F 87 °F (1999)
Min Temperature 64 °F 73 °F 62 °F (1998)
Cooling Degree Days 9    
Growing Degree Days 24 (Base 50)    
Moisture  
Dew Point 69 °F    
Average Humidity 86    
Maximum Humidity 100    
Minimum Humidity 62    
Precipitation  
Precipitation 0.00 in - - ()
Sea Level Pressure  
Sea Level Pressure 29.98 in    
Wind  
Wind Speed 4 mph ()    
Max Wind Speed 15 mph    
Max Gust Speed 20 mph    
Visibility 7.5 miles    
Events      
Averages and records for this station are not official NWS values.
T = Trace of Precipitation, MM = Missing Value Source: Averaged Metar Reports

Daily Weather History Graph

Daily Weather History Graph

Search for Another Location

Airport or City:

Trip Planner

Search our weather history database for the weather conditions in past years. The results will help you decide how hot, cold, wet, or windy it might be!

Date:

Astronomy

Mar. 24, 2014 Rise Set
Actual Time 5:48 AM CST 5:59 PM CST
Civil Twilight 5:26 AM CST 6:22 PM CST
Nautical Twilight 5:00 AM CST 6:47 PM CST
Astronomical Twilight 4:34 AM CST 7:13 PM CST
Moon 12:36 AM CST 12:05 PM CST
Length of Visible Light 12h 55m
Length of Day
12h 11m
Last Quarter, 42% of the Moon is Illuminated
Mar 24
Last Quarter
Mar 30
New
Apr 7
First Quarter
Apr 15
Full
Apr 22
Last Quarter

Hourly Weather History & Observations

Time (CST) Temp. Heat Index Dew Point Humidity Pressure Visibility Wind Dir Wind Speed Gust Speed Precip Events Conditions
12:50 AM 66.2 °F - 66.2 °F 100% 30.02 in 7.0 mi Calm Calm - N/A   Clear
1:50 AM 66.2 °F - 66.2 °F 100% 30.00 in 7.0 mi ESE 3.5 mph - N/A   Clear
2:57 AM 64.4 °F - 64.4 °F 100% 30.02 in 7.0 mi Calm Calm - N/A   Clear
3:42 AM 66.2 °F - 66.2 °F 100% 29.99 in 7.0 mi Calm Calm - N/A   Clear
4:42 AM 66.2 °F - 66.2 °F 100% 29.99 in 7.0 mi SE 3.5 mph - N/A   Clear
5:44 AM 66.2 °F - 66.2 °F 100% 29.99 in 7.0 mi ESE 3.5 mph - N/A   Clear
6:46 AM 68.0 °F - 68.0 °F 100% 30.01 in 8.0 mi ESE 4.6 mph - N/A   Clear
7:40 AM 75.2 °F - 73.4 °F 94% 30.02 in 8.0 mi ESE 6.9 mph - N/A   Clear
8:40 AM 78.8 °F - 71.6 °F 78% 30.06 in 8.0 mi ESE 15.0 mph - N/A   Scattered Clouds
9:40 AM 80.6 °F 84.6 °F 71.6 °F 74% 30.04 in 8.0 mi SE 10.4 mph - N/A   Scattered Clouds
10:40 AM 82.4 °F 87.2 °F 71.6 °F 70% 30.02 in 8.0 mi ESE 13.8 mph - N/A   Scattered Clouds
11:41 AM 82.4 °F 86.3 °F 69.8 °F 66% 29.99 in 8.0 mi SE 5.8 mph 17.3 mph N/A   Scattered Clouds
12:40 PM 82.4 °F 86.3 °F 69.8 °F 66% 29.97 in 8.0 mi SSE 11.5 mph - N/A   Scattered Clouds
1:40 PM 84.2 °F 88.4 °F 69.8 °F 62% 29.95 in 8.0 mi SE 6.9 mph 19.6 mph N/A   Scattered Clouds
2:47 PM 82.4 °F 86.3 °F 69.8 °F 66% 29.95 in 8.0 mi SE 10.4 mph - N/A   Scattered Clouds
3:41 PM 80.6 °F 83.9 °F 69.8 °F 70% 29.92 in 8.0 mi SSE 10.4 mph - N/A   Scattered Clouds
4:43 PM 78.8 °F - 69.8 °F 74% 29.93 in 8.0 mi SE 10.4 mph - N/A   Scattered Clouds
5:49 PM 77.0 °F - 69.8 °F 78% 29.92 in 8.0 mi SSE 6.9 mph - N/A   Partly Cloudy
6:46 PM 73.4 °F - 69.8 °F 88% 29.95 in 7.0 mi Calm Calm - N/A   Partly Cloudy
7:47 PM 71.6 °F - 69.8 °F 94% 29.96 in 7.0 mi Calm Calm - N/A   Partly Cloudy
8:43 PM 71.6 °F - 69.8 °F 94% 30.01 in 7.0 mi SSE 3.5 mph - N/A   Partly Cloudy
9:40 PM 71.6 °F - 69.8 °F 94% 29.97 in 7.0 mi Calm Calm - N/A   Partly Cloudy
10:40 PM 71.6 °F - 69.8 °F 94% 29.95 in 7.0 mi SSE 3.5 mph - N/A   Partly Cloudy
11:51 PM 71.6 °F - 69.8 °F 94% 29.91 in 7.0 mi SSE 3.5 mph - N/A   Partly Cloudy